Back to catalog

STARLINK-31949

AliveCommunicationsVLEO
NORAD 59891·PAYLOAD·🇺🇸 United States

Launched May 28, 2024 from Cape Canaveral Space Force Station

Loading…

Next Passes (next 24 hours)

TLE

FreshSource: CelesTrak SupGP

Epoch: Sep 14, 2026, 22:51 UTC

1 59891C 24100G   26257.95256944 -.00020477  00000+0 -74181-3 0  2577
2 59891  42.9990 136.4830 0001303 271.0968  57.6621 15.27582612    19

Track STARLINK-31949 in real time with AllMySat

Download on the App Store